Latest Coastal Weather Observations for Cape Jaffa

IDS60701

Issued at 10:42 am CDT Tuesday 31 March 2015 (issued every 10 minutes, with the page automatically refreshed every 10 minutes)

About coastal observations | Map of coastal stations | Coastal observations for SA | Marine services | Other Formats
Station Details ID: 026095 Name: THE LIMESTONE Lat: -36.97 Lon: 139.72 Height: 17.0 m
Data from the previous 72 hours. | See also: Recent months at Cape Jaffa
Date/Time
CDT
Temp

°C
Wind Pressure Rain
since 9am
mm
Weather Cloud Vis
km
Sea
Height
m
Swell
Dir
 
Speed
knots
Gust
knots
hPa Trend Height
m
Period
s
Dir
31/10:30am 19.9 NE 9 12 1024.9 - 0.0 - - - - - - -
31/10:00am 16.4 ENE 9 11 1024.9 - 0.0 - - - - - - -
31/09:30am 14.7 ENE 8 9 1025.1 - 0.0 - - - - - - -
31/09:00am 13.2 ENE 9 10 1025.1 - 0.2 - - - - - - -
31/08:30am 12.7 E 7 9 1025.0 - 0.2 - - - - - - -
31/08:00am 11.3 E 7 8 1024.9 - 0.2 - - - - - - -
31/07:30am 10.1 E 6 7 1024.7 - 0.2 - - - - - - -
31/07:00am 10.1 E 4 5 1025.0 - 0.2 - - - - - - -
31/06:30am 11.2 E 4 5 1024.9 - 0.2 - - - - - - -
31/06:00am 11.2 E 5 5 1024.5 - 0.2 - - - - - - -
31/05:30am 11.4 E 5 5 1024.6 - 0.2 - - - - - - -
31/05:00am 11.9 ESE 5 6 1024.6 - 0.2 - - - - - - -
31/04:30am 12.4 ESE 6 6 1024.6 - 0.2 - - - - - - -
31/04:00am 11.9 ESE 5 5 1024.8 - 0.2 - - - - - - -
31/03:30am 11.9 SE 4 5 1025.0 - 0.2 - - - - - - -
31/03:00am 11.8 SE 4 4 1025.0 - 0.2 Recent precip. - - - - - -
31/02:30am 11.8 E 5 7 1024.9 - 0.2 - - - - - - -
31/02:00am 12.6 SE 5 5 1025.1 - 0.0 - - - - - - -
31/01:30am 12.6 SSE 5 5 1025.3 - 0.0 - - - - - - -
31/01:00am 12.7 SSE 3 4 1025.4 - 0.0 - - - - - - -
31/12:30am 11.2 ESE 2 3 1025.4 - 0.0 - - - - - - -
31/12:00am 12.9 SSE 2 3 1025.5 - 0.0 - - - - - - -
 
Date/Time
CDT
Temp

°C
Wind Pressure Rain
since 9am
mm
Weather Cloud Vis
km
Sea
Height
m
Swell
Dir
 
Speed
knots
Gust
knots
hPa Trend Height
m
Period
s
Dir
30/11:30pm 14.2 CALM 0 0 1025.7 - 0.0 - - - - - - -
30/11:00pm 14.8 CALM 0 0 1026.0 - 0.0 - - - - - - -
30/10:30pm 14.3 E 1 2 1026.1 - 0.0 - - - - - - -
30/10:00pm 13.8 SE 2 2 1026.1 - 0.0 - - - - - - -
30/09:30pm 15.3 SW 4 4 1026.0 - 0.0 - - - - - - -
30/09:00pm 15.2 SW 3 3 1026.0 - 0.0 - - - - - - -
30/08:30pm 15.6 SW 3 3 1025.7 - 0.0 - - - - - - -
30/08:00pm 16.1 SW 2 3 1025.5 - 0.0 - - - - - - -
30/07:30pm 16.1 WSW 3 4 1025.3 - 0.0 - - - - - - -
30/07:00pm 17.4 WSW 4 5 1025.2 - 0.0 - - - - - - -
30/06:30pm 18.4 W 5 6 1025.0 - 0.0 - - - - - - -
30/06:00pm 18.8 W 7 8 1024.8 - 0.0 - - - - - - -
30/05:30pm 19.6 W 6 8 1024.7 - 0.0 - - - - - - -
30/05:00pm 19.5 W 7 10 1024.7 - 0.0 - - - - - - -
30/04:30pm 19.6 W 7 11 1024.6 - 0.0 - - - - - - -
30/04:00pm 19.7 W 8 11 1024.8 - 0.0 - - - - - - -
30/03:30pm 20.0 W 8 11 1024.8 - 0.0 - - - - - - -
30/03:00pm 20.0 WNW 8 11 1024.8 - 0.0 - - - - - - -
30/02:30pm 19.6 NW 9 12 1024.9 - 0.0 - - - - - - -
30/02:00pm 20.0 NNW 9 11 1025.0 - 0.0 - - - - - - -
30/01:30pm 19.8 NNW 9 12 1025.2 - 0.0 - - - - - - -
30/01:00pm 18.8 NNW 9 11 1025.4 - 0.0 - - - - - - -
30/12:30pm 18.3 NNW 8 11 1025.7 - 0.0 - - - - - - -
30/12:00pm 18.9 NNW 7 11 1025.8 - 0.0 - - - - - - -
30/11:30am 18.8 NNW 7 9 1025.9 - 0.0 - - - - - - -
30/11:00am 17.4 N 7 10 1026.1 - 0.0 - - - - - - -
30/10:30am 17.0 N 6 9 1026.0 - 0.0 - - - - - - -
30/10:00am 16.3 NE 4 5 1025.8 - 0.0 - - - - - - -
30/09:30am 14.2 ENE 4 6 1025.6 - 0.0 - - - - - - -
30/09:00am 12.5 E 4 5 1025.2 - 0.0 - - - - - - -
30/08:30am 11.1 E 4 5 1024.8 - 0.0 - - - - - - -
30/08:00am 9.9 E 3 5 1024.5 - 0.0 - - - - - - -
30/07:30am 8.7 E 4 5 1024.2 - 0.0 - - - - - - -
30/07:00am 8.8 E 5 5 1024.0 - 0.0 - - - - - - -
30/06:30am 9.1 E 5 6 1023.6 - 0.0 - - - - - - -
30/06:00am 9.2 ENE 3 4 1023.2 - 0.0 - - - - - - -
30/05:30am 10.4 ENE 1 2 1023.1 - 0.0 - - - - - - -
30/05:00am 12.7 CALM 0 0 1022.9 - 0.0 - - - - - - -
30/04:30am 12.5 WSW 1 2 1022.8 - 0.0 - - - - - - -
30/04:00am 13.4 WSW 3 3 1022.9 - 0.0 - - - - - - -
30/03:30am 13.6 W 1 2 1022.9 - 0.0 - - - - - - -
30/03:00am 13.9 W 2 3 1023.0 - 0.0 - - - - - - -
30/02:30am 13.8 W 2 2 1023.1 - 0.0 - - - - - - -
30/02:00am 14.1 W 2 3 1023.1 - 0.0 - - - - - - -
30/01:30am 14.7 W 2 3 1023.2 - 0.0 - - - - - - -
30/01:00am 14.4 W 3 3 1023.3 - 0.0 - - - - - - -
30/12:30am 14.3 W 3 3 1023.5 - 0.0 - - - - - - -
30/12:00am 14.7 W 3 3 1023.5 - 0.0 - - - - - - -
 
Date/Time
CDT
Temp

°C
Wind Pressure Rain
since 9am
mm
Weather Cloud Vis
km
Sea
Height
m
Swell
Dir
 
Speed
knots
Gust
knots
hPa Trend Height
m
Period
s
Dir
29/11:30pm 14.4 W 3 3 1023.5 - 0.0 - - - - - - -
29/11:00pm 14.7 W 2 3 1023.6 - 0.0 - - - - - - -
29/10:30pm 15.0 W 2 3 1023.6 - 0.0 - - - - - - -
29/10:00pm 15.3 WSW 2 3 1023.5 - 0.0 - - - - - - -
29/09:30pm 15.8 WSW 2 3 1023.5 - 0.0 - - - - - - -
29/09:00pm 16.2 WSW 2 3 1023.2 - 0.0 - - - - - - -
29/08:30pm 16.7 SW 3 4 1023.0 - 0.0 - - - - - - -
29/08:00pm 16.7 WSW 3 4 1022.7 - 0.0 - - - - - - -
29/07:30pm 17.1 WSW 4 5 1022.5 - 0.0 - - - - - - -
29/07:00pm 18.0 W 5 6 1022.5 - 0.0 - - - - - - -
29/06:30pm 18.0 W 6 7 1022.3 - 0.0 - - - - - - -
29/06:00pm 18.4 W 7 8 1022.2 - 0.0 - - - - - - -
29/05:30pm 19.5 W 7 9 1022.0 - 0.0 - - - - - - -
29/05:00pm 19.9 W 8 11 1021.9 - 0.0 - - - - - - -
29/04:30pm 19.6 WNW 8 11 1021.7 - 0.0 - - - - - - -
29/04:00pm 19.6 NW 9 11 1021.8 - 0.0 - - - - - - -
29/03:30pm 20.2 NW 8 11 1021.8 - 0.0 - - - - - - -
29/03:00pm 19.8 NW 10 13 1021.8 - 0.0 - - - - - - -
29/02:30pm 19.4 NNW 10 12 1022.0 - 0.0 - - - - - - -
29/02:00pm 19.8 NNW 11 13 1022.2 - 0.0 - - - - - - -
29/01:30pm 19.3 NNW 10 12 1022.4 - 0.0 - - - - - - -
29/01:00pm 19.0 NNW 11 14 1022.5 - 0.0 - - - - - - -
29/12:30pm 19.0 N 10 12 1022.6 - 0.0 - - - - - - -
29/12:00pm 19.0 N 10 12 1022.8 - 0.0 - - - - - - -
29/11:30am 18.8 N 10 12 1023.0 - 0.0 - - - - - - -
29/11:00am 18.3 N 8 11 1023.0 - 0.0 - - - - - - -
29/10:30am 17.7 N 7 9 1023.0 - 0.0 - - - - - - -
29/10:00am 15.8 NNE 4 6 1023.0 - 0.0 - - - - - - -
29/09:30am 13.4 ENE 3 4 1023.0 - 0.0 - - - - - - -
29/09:00am 11.9 ENE 4 5 1022.8 - 0.0 - - - - - - -
29/08:30am 10.4 ENE 5 6 1022.6 - 0.0 - - - - - - -
29/08:00am 9.6 ENE 5 5 1022.3 - 0.0 - - - - - - -
29/07:30am 9.1 E 6 6 1022.2 - 0.0 - - - - - - -
29/07:00am 9.3 E 6 6 1021.8 - 0.0 - - - - - - -
29/06:30am 9.5 E 5 6 1021.7 - 0.0 - - - - - - -
29/06:00am 9.8 E 5 5 1021.3 - 0.0 - - - - - - -
29/05:30am 9.1 E 5 6 1021.1 - 0.0 - - - - - - -
29/05:00am 9.6 ENE 5 6 1020.8 - 0.0 - - - - - - -
29/04:30am 10.1 ENE 4 5 1020.6 - 0.0 - - - - - - -
29/04:00am 10.3 E 4 5 1020.6 - 0.0 - - - - - - -
29/03:30am 10.1 ENE 4 4 1020.9 - 0.0 - - - - - - -
29/03:00am 10.1 ENE 4 5 1020.9 - 0.0 - - - - - - -
29/02:30am 10.0 ENE 5 5 1021.0 - 0.0 - - - - - - -
29/02:00am 10.1 E 5 6 1021.2 - 0.0 - - - - - - -
29/01:30am 9.7 E 6 7 1021.1 - 0.0 - - - - - - -
29/01:00am 9.8 E 5 6 1021.3 - 0.0 - - - - - - -
29/12:30am 9.9 E 6 6 1021.4 - 0.0 - - - - - - -
29/12:00am 10.5 E 5 5 1021.5 - 0.0 - - - - - - -
 
Date/Time
CDT
Temp

°C
Wind Pressure Rain
since 9am
mm
Weather Cloud Vis
km
Sea
Height
m
Swell
Dir
 
Speed
knots
Gust
knots
hPa Trend Height
m
Period
s
Dir
28/11:30pm 11.8 ENE 2 3 1021.8 - 0.0 - - - - - - -
28/11:00pm 11.5 CALM 0 0 1021.9 - 0.0 - - - - - - -
28/10:30pm 12.2 CALM 0 1 1022.0 - 0.0 - - - - - - -
28/10:00pm 13.1 CALM 0 0 1022.1 - 0.0 - - - - - - -
28/09:30pm 13.4 W 2 3 1022.2 - 0.0 - - - - - - -
28/09:00pm 13.7 W 2 2 1022.2 - 0.0 - - - - - - -
28/08:30pm 13.6 W 3 3 1022.0 - 0.0 - - - - - - -
28/08:00pm 14.1 SSW 1 1 1021.8 - 0.0 - - - - - - -
28/07:30pm 14.9 SSW 1 1 1021.5 - 0.0 - - - - - - -
28/07:00pm 15.3 SSW 3 3 1021.5 - 0.0 - - - - - - -
28/06:30pm 16.6 SW 4 5 1021.5 - 0.0 - - - - - - -
28/06:00pm 17.4 W 5 7 1021.4 - 0.0 - - - - - - -
28/05:30pm 17.9 W 4 10 1021.6 - 0.0 - - - - - - -
28/05:00pm 17.7 W 7 10 1021.8 - 0.0 - - - - - - -
28/04:30pm 18.6 WNW 7 10 1022.1 - 0.0 - - - - - - -
28/04:00pm 18.8 NW 8 11 1022.3 - 0.0 - - - - - - -
28/03:30pm 18.1 NW 6 9 1022.6 - 0.0 - - - - - - -
28/03:00pm 17.9 NW 9 11 1023.3 - 0.0 - - - - - - -
28/02:30pm 18.3 NNW 8 13 1023.5 - 0.0 - - - - - - -
28/02:00pm 18.6 NW 6 10 1024.0 - 0.0 - - - - - - -
28/01:30pm 16.3 NNW 8 11 1024.5 - 0.0 - - - - - - -
28/01:00pm 16.6 NNW 9 13 1024.9 - 0.0 - - - - - - -
28/12:30pm 15.9 N 9 13 1025.0 - 0.0 - - - - - - -
28/12:00pm 16.7 N 9 12 1025.2 - 0.0 - - - - - - -
28/11:30am 16.3 N 10 15 1025.5 - 0.0 - - - - - - -
28/11:00am 16.1 NNE 12 15 1025.7 - 0.0 - - - - - - -

Other Formats:

Comma delimited format used in spreadsheet applications
http://www.bom.gov.au/fwo/IDS60701/IDS60701.94813.axf

JavaScript Object Notation format (JSON) in row-major order
http://www.bom.gov.au/fwo/IDS60701/IDS60701.94813.json